| time (UTC) | temp F | wind direction | speed knots | gust knots | rain 1hr in | rain 24hr in | rain mn in | humidity % | barometer mb |
| 20260906145351 | 69 | 192 | 0.9 | 3.5 | 0.00 | 0.00 | 0.00 | 92 | 1058.4 |
| 20260906144846 | 69 | 208 | 2.6 | 2.6 | 0.00 | 0.00 | 0.00 | 92 | 1058.4 |
| 20260906144341 | 69 | 208 | 2.6 | 2.6 | 0.00 | 0.00 | 0.00 | 92 | 1058.4 |
| 20260906143840 | 69 | 224 | 0.0 | 0.9 | 0.00 | 0.00 | 0.00 | 93 | 1058.4 |
| 20260906143336 | 69 | 82 | 3.5 | 3.5 | 0.00 | 0.00 | 0.00 | 93 | 1058.4 |
| 20260906142832 | 70 | 113 | 4.3 | 5.2 | 0.00 | 0.00 | 0.00 | 92 | 1058.4 |
| 20260906142326 | 69 | 134 | 0.9 | 2.6 | 0.00 | 0.00 | 0.00 | 93 | 1058.5 |
| 20260906141821 | 69 | 222 | 0.0 | 0.9 | 0.00 | 0.00 | 0.00 | 93 | 1058.2 |
| 20260906141316 | 69 | 59 | 4.3 | 5.2 | 0.00 | 0.00 | 0.00 | 93 | 1058.1 |
| 20260906140814 | 69 | 297 | 0.9 | 1.7 | 0.00 | 0.00 | 0.00 | 94 | 1058.3 |
| 20260906140310 | 69 | 251 | 0.9 | 1.7 | 0.00 | 0.00 | 0.00 | 95 | 1057.9 |
| 20260906135807 | 69 | 130 | 0.9 | 3.5 | 0.00 | 0.00 | 0.00 | 95 | 1058.3 |
| 20260906135305 | 69 | 215 | 0.9 | 0.9 | 0.00 | 0.00 | 0.00 | 95 | 1058.3 |
| 20260906134758 | 69 | 220 | 1.7 | 1.7 | 0.00 | 0.00 | 0.00 | 94 | 1058.5 |
| 20260906134252 | 68 | 297 | 2.6 | 3.5 | 0.00 | 0.00 | 0.00 | 98 | 1058.4 |
| 20260906133748 | 68 | 297 | 2.6 | 3.5 | 0.00 | 0.00 | 0.00 | 98 | 1058.6 |
| 20260906133244 | 68 | 297 | 2.6 | 3.5 | 0.00 | 0.00 | 0.00 | 98 | 1058.3 |
| 20260906132738 | 68 | 297 | 2.6 | 3.5 | 0.00 | 0.00 | 0.00 | 98 | 1058.3 |
| 20260906132233 | 68 | 297 | 2.6 | 3.5 | 0.00 | 0.00 | 0.00 | 98 | 1058.3 |
| 20260906131729 | 68 | 297 | 2.6 | 3.5 | 0.00 | 0.00 | 0.00 | 98 | 1058.1 |
| 20260906131224 | 68 | 297 | 2.6 | 3.5 | 0.00 | 0.00 | 0.00 | 98 | 1058.2 |
| 20260906130720 | 68 | 297 | 2.6 | 3.5 | 0.00 | 0.00 | 0.00 | 98 | 1057.8 |
| 20260906130214 | 68 | 297 | 2.6 | 3.5 | 0.00 | 0.00 | 0.00 | 98 | 1057.7 |
| 20260906125713 | 68 | 297 | 2.6 | 3.5 | 0.00 | 0.00 | 0.00 | 98 | 1057.9 |
| 20260906125211 | 68 | 297 | 2.6 | 3.5 | 0.00 | 0.00 | 0.00 | 98 | 1057.9 |
| 20260906124707 | 68 | 297 | 2.6 | 3.5 | 0.00 | 0.00 | 0.00 | 98 | 1057.7 |
| 20260906124202 | 67 | 81 | 2.6 | 2.6 | 0.00 | 0.00 | 0.00 | 98 | 1057.8 |
| 20260906123700 | 67 | 36 | 2.6 | 2.6 | 0.00 | 0.00 | 0.00 | 99 | 1057.7 |
| 20260906123156 | 67 | 36 | 2.6 | 2.6 | 0.00 | 0.00 | 0.00 | 99 | 1057.4 |
| 20260906122655 | 67 | 36 | 2.6 | 2.6 | 0.00 | 0.00 | 0.00 | 99 | 1057.3 |
| 20260906122151 | 67 | 36 | 2.6 | 2.6 | 0.00 | 0.00 | 0.00 | 99 | 1057.2 |
| 20260906121647 | 67 | 218 | 0.0 | 0.0 | 0.00 | 0.00 | 0.00 | 99 | 1057.1 |
| 20260906121143 | 67 | 218 | 0.0 | 0.0 | 0.00 | 0.00 | 0.00 | 99 | 1057.0 |
| 20260906120639 | 67 | 30 | 2.6 | 2.6 | 0.00 | 0.00 | 0.00 | 99 | 1057.1 |
| 20260906120136 | 67 | 30 | 2.6 | 2.6 | 0.00 | 0.00 | 0.00 | 99 | 1056.8 |
| 20260906115636 | 67 | 31 | 1.7 | 1.7 | 0.00 | 0.00 | 0.00 | 99 | 1057.1 |
| 20260906115132 | 67 | 152 | 2.6 | 2.6 | 0.00 | 0.00 | 0.00 | 99 | 1057.0 |
| 20260906114631 | 67 | 20 | 0.9 | 0.9 | 0.00 | 0.00 | 0.00 | 99 | 1057.0 |
| 20260906114126 | 67 | 20 | 0.9 | 0.9 | 0.00 | 0.00 | 0.00 | 99 | 1057.0 |
| 20260906113621 | 67 | 20 | 0.9 | 0.9 | 0.00 | 0.00 | 0.00 | 99 | 1056.9 |
| 20260906113121 | 67 | 20 | 0.9 | 0.9 | 0.00 | 0.00 | 0.00 | 99 | 1057.2 |
| 20260906112620 | 67 | 79 | 1.7 | 2.6 | 0.00 | 0.00 | 0.00 | 99 | 1057.1 |
| 20260906112117 | 67 | 199 | 0.9 | 3.5 | 0.00 | 0.00 | 0.00 | 99 | 1056.9 |
| 20260906111616 | 67 | 200 | 1.7 | 2.6 | 0.00 | 0.00 | 0.00 | 99 | 1057.0 |
| 20260906111111 | 67 | 177 | 1.7 | 3.5 | 0.00 | 0.00 | 0.00 | 99 | 1056.9 |
| 20260906110606 | 67 | 195 | 0.9 | 1.7 | 0.00 | 0.00 | 0.00 | 99 | 1057.2 |
| 20260906110106 | 67 | 237 | 0.0 | 0.9 | 0.00 | 0.00 | 0.00 | 99 | 1056.9 |
| 20260906105600 | 66 | 47 | 0.9 | 1.7 | 0.00 | 0.00 | 0.00 | 99 | 1057.1 |
| 20260906105056 | 66 | 224 | 0.0 | 0.0 | 0.00 | 0.00 | 0.00 | 99 | 1057.1 |
| 20260906104555 | 66 | 238 | 0.0 | 0.9 | 0.00 | 0.00 | 0.00 | 99 | 1056.9 |
| 20260906104049 | 66 | 239 | 0.0 | 0.9 | 0.00 | 0.00 | 0.00 | 99 | 1057.0 |
| 20260906103547 | 66 | 268 | 0.9 | 1.7 | 0.00 | 0.00 | 0.00 | 99 | 1056.9 |
| 20260906103043 | 66 | 247 | 0.0 | 0.0 | 0.00 | 0.00 | 0.00 | 99 | 1057.0 |
| 20260906102543 | 66 | 308 | 0.0 | 0.9 | 0.00 | 0.00 | 0.00 | 99 | 1056.7 |
| 20260906102038 | 66 | 49 | 0.9 | 1.7 | 0.00 | 0.00 | 0.00 | 99 | 1056.6 |
| 20260906101532 | 66 | 187 | 0.0 | 1.7 | 0.00 | 0.00 | 0.00 | 99 | 1056.7 |
| 20260906101027 | 66 | 62 | 0.9 | 1.7 | 0.00 | 0.00 | 0.00 | 99 | 1056.7 |
| 20260906100523 | 66 | 211 | 0.9 | 1.7 | 0.00 | 0.00 | 0.00 | 99 | 1056.5 |
| 20260906100018 | 66 | 259 | 0.0 | 1.7 | 0.00 | 0.00 | 0.00 | 99 | 1056.6 |
| 20260906095513 | 66 | 204 | 0.0 | 0.9 | 0.00 | 0.00 | 0.00 | 99 | 1056.5 |
| 20260906095008 | 66 | 274 | 0.0 | 0.0 | 0.00 | 0.00 | 0.00 | 99 | 1056.6 |
| 20260906094507 | 66 | 238 | 0.0 | 0.9 | 0.00 | 0.00 | 0.00 | 99 | 1056.5 |
| 20260906094003 | 66 | 213 | 0.0 | 0.9 | 0.00 | 0.00 | 0.00 | 99 | 1056.5 |
| 20260906093459 | 66 | 212 | 0.0 | 0.9 | 0.00 | 0.00 | 0.00 | 98 | 1056.5 |
| 20260906092953 | 67 | 238 | 0.0 | 0.9 | 0.00 | 0.00 | 0.00 | 98 | 1056.4 |
| 20260906092453 | 67 | 225 | 0.0 | 0.0 | 0.00 | 0.00 | 0.00 | 98 | 1056.5 |
| 20260906091948 | 67 | 227 | 0.0 | 0.9 | 0.00 | 0.00 | 0.00 | 98 | 1056.5 |
| 20260906091444 | 67 | 227 | 0.0 | 0.0 | 0.00 | 0.00 | 0.00 | 97 | 1056.5 |
| 20260906090940 | 68 | 209 | 0.9 | 1.7 | 0.00 | 0.00 | 0.00 | 97 | 1056.3 |
| 20260906090436 | 68 | 237 | 0.0 | 1.7 | 0.00 | 0.00 | 0.00 | 97 | 1056.2 |
| 20260906085930 | 68 | 223 | 0.0 | 0.9 | 0.00 | 0.00 | 0.00 | 97 | 1056.1 |
| 20260906085430 | 68 | 179 | 1.7 | 2.6 | 0.00 | 0.00 | 0.00 | 97 | 1055.9 |
| 20260906084929 | 68 | 220 | 0.9 | 1.7 | 0.00 | 0.00 | 0.00 | 96 | 1055.8 |
| 20260906084424 | 69 | 10 | 1.7 | 2.6 | 0.00 | 0.00 | 0.00 | 96 | 1055.8 |
| 20260906083923 | 69 | 216 | 0.0 | 3.5 | 0.00 | 0.00 | 0.00 | 96 | 1055.7 |
| 20260906083418 | 69 | 81 | 3.5 | 5.2 | 0.00 | 0.00 | 0.00 | 96 | 1055.7 |
| 20260906082917 | 69 | 20 | 1.7 | 3.5 | 0.00 | 0.00 | 0.00 | 96 | 1055.8 |
| 20260906082413 | 69 | 302 | 1.7 | 2.6 | 0.00 | 0.00 | 0.00 | 96 | 1056.0 |
| 20260906081909 | 69 | 99 | 1.7 | 1.7 | 0.00 | 0.00 | 0.00 | 96 | 1055.9 |
| 20260906081404 | 69 | 74 | 2.6 | 2.6 | 0.00 | 0.00 | 0.00 | 96 | 1055.9 |
| 20260906080900 | 69 | 261 | 3.5 | 5.2 | 0.00 | 0.00 | 0.00 | 96 | 1055.8 |
| 20260906080357 | 69 | 101 | 1.7 | 5.2 | 0.00 | 0.00 | 0.00 | 96 | 1055.8 |
| 20260906075856 | 69 | 47 | 3.5 | 3.5 | 0.00 | 0.00 | 0.00 | 96 | 1055.8 |
| 20260906075350 | 69 | 220 | 1.7 | 3.5 | 0.00 | 0.00 | 0.00 | 95 | 1055.8 |
| 20260906074846 | 69 | 44 | 1.7 | 2.6 | 0.00 | 0.00 | 0.00 | 95 | 1055.8 |
| 20260906074345 | 69 | 157 | 0.9 | 3.5 | 0.00 | 0.00 | 0.00 | 95 | 1056.0 |
| 20260906073844 | 69 | 143 | 1.7 | 2.6 | 0.00 | 0.00 | 0.00 | 95 | 1056.1 |
| 20260906073339 | 70 | 343 | 0.9 | 2.6 | 0.00 | 0.00 | 0.00 | 95 | 1056.1 |
| 20260906072836 | 70 | 126 | 1.7 | 3.5 | 0.00 | 0.00 | 0.00 | 94 | 1056.2 |
| 20260906072331 | 70 | 313 | 0.9 | 5.2 | 0.00 | 0.00 | 0.00 | 94 | 1056.2 |
| 20260906071827 | 70 | 245 | 1.7 | 2.6 | 0.00 | 0.00 | 0.00 | 94 | 1056.2 |
| 20260906071322 | 70 | 1 | 2.6 | 3.5 | 0.00 | 0.00 | 0.00 | 94 | 1056.1 |
| 20260906070818 | 70 | 89 | 0.9 | 6.1 | 0.00 | 0.00 | 0.00 | 94 | 1056.2 |
| 20260906070314 | 70 | 340 | 0.9 | 3.5 | 0.00 | 0.00 | 0.00 | 94 | 1056.4 |
| 20260906065813 | 70 | 52 | 3.5 | 5.2 | 0.00 | 0.00 | 0.00 | 94 | 1056.3 |
| 20260906065309 | 71 | 221 | 1.7 | 7.0 | 0.00 | 0.00 | 0.00 | 94 | 1056.3 |
| 20260906064804 | 71 | 16 | 1.7 | 3.5 | 0.00 | 0.00 | 0.00 | 94 | 1056.3 |
| 20260906064300 | 70 | 70 | 0.9 | 2.6 | 0.00 | 0.00 | 0.00 | 94 | 1056.5 |
| 20260906063755 | 71 | 38 | 3.5 | 7.0 | 0.00 | 0.00 | 0.00 | 94 | 1056.4 |
| 20260906063251 | 71 | 51 | 1.7 | 3.5 | 0.00 | 0.00 | 0.00 | 94 | 1056.3 |
| 20260906062746 | 71 | 94 | 2.6 | 5.2 | 0.00 | 0.00 | 0.00 | 94 | 1056.5 |
| 20260906062245 | 71 | 100 | 4.3 | 6.1 | 0.00 | 0.00 | 0.00 | 93 | 1056.5 |
| 20260906061741 | 71 | 36 | 1.7 | 3.5 | 0.00 | 0.00 | 0.00 | 93 | 1056.4 |
| 20260906061237 | 71 | 63 | 0.9 | 1.7 | 0.00 | 0.00 | 0.00 | 93 | 1056.4 |
| 20260906060731 | 71 | 64 | 3.5 | 3.5 | 0.00 | 0.00 | 0.00 | 93 | 1056.3 |
| 20260906060229 | 71 | 226 | 0.0 | 1.7 | 0.00 | 0.00 | 0.00 | 94 | 1056.5 |
| 20260906055725 | 71 | 33 | 1.7 | 2.6 | 0.00 | 0.00 | 0.00 | 94 | 1056.5 |
| 20260906055220 | 71 | 70 | 0.9 | 3.5 | 0.00 | 0.00 | 0.00 | 94 | 1056.4 |
| 20260906054716 | 71 | 312 | 0.9 | 3.5 | 0.00 | 0.00 | 0.00 | 94 | 1056.5 |
| 20260906054215 | 71 | 95 | 1.7 | 2.6 | 0.00 | 0.00 | 0.00 | 95 | 1056.6 |
| 20260906053712 | 71 | 72 | 1.7 | 2.6 | 0.00 | 0.00 | 0.00 | 95 | 1056.6 |
| 20260906053207 | 71 | 76 | 1.7 | 2.6 | 0.00 | 0.00 | 0.00 | 95 | 1056.7 |
| 20260906052702 | 71 | 357 | 0.9 | 1.7 | 0.00 | 0.00 | 0.00 | 95 | 1056.4 |
| 20260906052159 | 71 | 139 | 0.9 | 2.6 | 0.00 | 0.00 | 0.00 | 95 | 1056.4 |
| 20260906051655 | 71 | 56 | 1.7 | 2.6 | 0.00 | 0.00 | 0.00 | 95 | 1056.5 |
| 20260906051154 | 71 | 273 | 0.9 | 2.6 | 0.00 | 0.00 | 0.00 | 95 | 1056.4 |
| 20260906050650 | 72 | 81 | 2.6 | 3.5 | 0.00 | 0.00 | 0.00 | 95 | 1056.6 |
| 20260906050145 | 72 | 22 | 0.9 | 2.6 | 0.00 | 0.00 | 0.00 | 96 | 1056.5 |
| 20260906045643 | 72 | 262 | 0.9 | 2.6 | 0.00 | 0.00 | 0.00 | 96 | 1056.6 |
| 20260906045139 | 72 | 288 | 0.9 | 1.7 | 0.00 | 0.00 | 0.00 | 96 | 1056.6 |
| 20260906044635 | 72 | 121 | 2.6 | 6.1 | 0.00 | 0.00 | 0.00 | 96 | 1056.3 |
| 20260906044130 | 72 | 49 | 0.9 | 2.6 | 0.00 | 0.00 | 0.00 | 95 | 1056.3 |
| 20260906043626 | 72 | 157 | 0.9 | 0.9 | 0.00 | 0.00 | 0.00 | 95 | 1056.3 |
| 20260906043121 | 72 | 37 | 1.7 | 2.6 | 0.00 | 0.00 | 0.00 | 96 | 1056.2 |
| 20260906042621 | 72 | 55 | 0.9 | 1.7 | 0.00 | 0.00 | 0.00 | 96 | 1056.5 |
| 20260906042115 | 72 | 7 | 1.7 | 1.7 | 0.00 | 0.00 | 0.00 | 96 | 1056.3 |
| 20260906041611 | 72 | 252 | 0.9 | 1.7 | 0.00 | 0.00 | 0.00 | 96 | 1056.1 |
| 20260906041106 | 72 | 142 | 0.9 | 1.7 | 0.00 | 0.00 | 0.00 | 96 | 1056.2 |
| 20260906040601 | 72 | 102 | 2.6 | 2.6 | 0.00 | 0.00 | 0.00 | 96 | 1056.2 |
| 20260906040057 | 73 | 92 | 1.7 | 2.6 | 0.00 | 0.00 | 0.00 | 96 | 1056.4 |
| 20260906035552 | 73 | 37 | 1.7 | 2.6 | 0.00 | 0.00 | 0.00 | 95 | 1056.3 |
| 20260906035042 | 73 | 358 | 1.7 | 1.7 | 0.00 | 0.00 | 0.00 | 95 | 1056.1 |
| 20260906034542 | 73 | 271 | 0.0 | 0.9 | 0.00 | 0.00 | 0.00 | 95 | 1056.2 |
| 20260906034037 | 73 | 219 | 0.0 | 2.6 | 0.00 | 0.00 | 0.00 | 95 | 1056.1 |
| 20260906033532 | 73 | 166 | 0.9 | 0.9 | 0.00 | 0.00 | 0.00 | 95 | 1056.4 |
| 20260906033027 | 73 | 193 | 0.9 | 0.9 | 0.00 | 0.00 | 0.00 | 95 | 1056.3 |
| 20260906032524 | 73 | 212 | 0.0 | 2.6 | 0.00 | 0.00 | 0.00 | 94 | 1056.3 |
| 20260906032024 | 73 | 212 | 0.9 | 1.7 | 0.00 | 0.00 | 0.00 | 94 | 1056.3 |
| 20260906031520 | 73 | 315 | 0.9 | 0.9 | 0.00 | 0.00 | 0.00 | 95 | 1056.1 |
| 20260906031015 | 73 | 293 | 0.0 | 0.9 | 0.00 | 0.00 | 0.00 | 95 | 1056.2 |
| 20260906030514 | 73 | 5 | 0.9 | 1.7 | 0.00 | 0.00 | 0.00 | 95 | 1056.0 |
| 20260906030014 | 73 | 244 | 0.0 | 0.0 | 0.00 | 0.00 | 0.00 | 95 | 1056.2 |
| 20260906025514 | 73 | 257 | 0.0 | 0.0 | 0.00 | 0.00 | 0.00 | 94 | 1056.0 |
| 20260906025012 | 73 | 249 | 0.0 | 0.0 | 0.00 | 0.00 | 0.00 | 94 | 1056.0 |
| 20260906024508 | 73 | 222 | 0.9 | 1.7 | 0.00 | 0.00 | 0.00 | 94 | 1056.2 |
| 20260906024008 | 73 | 169 | 0.0 | 0.0 | 0.00 | 0.00 | 0.00 | 95 | 1055.7 |
| 20260906023504 | 73 | 285 | 0.0 | 0.0 | 0.00 | 0.00 | 0.00 | 95 | 1055.9 |
| 20260906022959 | 73 | 228 | 0.0 | 0.0 | 0.00 | 0.00 | 0.00 | 95 | 1055.9 |
| 20260906022454 | 73 | 220 | 0.0 | 0.0 | 0.00 | 0.00 | 0.00 | 95 | 1056.0 |
| 20260906021949 | 73 | 299 | 0.0 | 0.0 | 0.00 | 0.00 | 0.00 | 95 | 1055.7 |
| 20260906021444 | 73 | 227 | 0.0 | 0.0 | 0.00 | 0.00 | 0.00 | 94 | 1055.8 |
| 20260906020944 | 73 | 241 | 0.0 | 0.0 | 0.00 | 0.00 | 0.00 | 95 | 1055.9 |
| 20260906020438 | 73 | 175 | 0.0 | 0.0 | 0.00 | 0.00 | 0.00 | 95 | 1055.5 |
| 20260906015932 | 73 | 222 | 0.0 | 0.0 | 0.00 | 0.00 | 0.00 | 96 | 1055.6 |
| 20260906015426 | 73 | 239 | 0.0 | 0.0 | 0.00 | 0.00 | 0.00 | 96 | 1055.4 |
| 20260906014926 | 73 | 252 | 0.0 | 0.0 | 0.00 | 0.00 | 0.00 | 96 | 1055.2 |
| 20260906014426 | 73 | 249 | 0.0 | 0.0 | 0.00 | 0.00 | 0.00 | 96 | 1055.3 |
| 20260906013922 | 73 | 274 | 0.0 | 0.0 | 0.00 | 0.00 | 0.00 | 96 | 1055.2 |
| 20260906013417 | 73 | 248 | 0.0 | 0.0 | 0.00 | 0.00 | 0.00 | 96 | 1055.2 |
| 20260906012913 | 73 | 220 | 0.0 | 0.0 | 0.00 | 0.00 | 0.00 | 96 | 1055.4 |
| 20260906012408 | 73 | 221 | 0.0 | 0.0 | 0.00 | 0.00 | 0.00 | 95 | 1055.3 |
| 20260906011907 | 73 | 237 | 0.0 | 0.0 | 0.00 | 0.00 | 0.00 | 95 | 1054.9 |
| 20260906011402 | 73 | 248 | 0.0 | 0.0 | 0.00 | 0.00 | 0.00 | 95 | 1055.1 |
| 20260906010858 | 74 | 226 | 0.0 | 0.0 | 0.00 | 0.00 | 0.00 | 95 | 1054.8 |
| 20260906010353 | 74 | 248 | 0.0 | 0.0 | 0.00 | 0.00 | 0.00 | 94 | 1054.9 |
| 20260906005849 | 74 | 237 | 0.0 | 0.0 | 0.00 | 0.00 | 0.00 | 94 | 1054.7 |
| 20260906005348 | 74 | 238 | 0.0 | 0.0 | 0.00 | 0.00 | 0.00 | 93 | 1054.6 |
| 20260906004847 | 75 | 252 | 0.0 | 0.0 | 0.00 | 0.00 | 0.00 | 93 | 1054.6 |
| 20260906004342 | 75 | 270 | 0.0 | 0.0 | 0.00 | 0.00 | 0.00 | 93 | 1054.6 |
| 20260906003837 | 75 | 227 | 0.0 | 0.0 | 0.00 | 0.00 | 0.00 | 92 | 1054.6 |
| 20260906003332 | 75 | 239 | 0.0 | 0.0 | 0.00 | 0.00 | 0.00 | 92 | 1054.6 |
| 20260906002828 | 75 | 257 | 0.0 | 0.0 | 0.00 | 0.00 | 0.00 | 92 | 1054.4 |
| 20260906002327 | 75 | 238 | 0.0 | 0.0 | 0.00 | 0.00 | 0.00 | 91 | 1054.7 |
| 20260906001823 | 75 | 234 | 0.0 | 0.0 | 0.00 | 0.00 | 0.00 | 91 | 1054.6 |
| 20260906001318 | 75 | 223 | 0.0 | 0.0 | 0.00 | 0.00 | 0.00 | 91 | 1054.4 |
| 20260906000813 | 75 | 298 | 0.0 | 2.6 | 0.00 | 0.00 | 0.00 | 91 | 1054.4 |
| 20260906000308 | 76 | 187 | 0.9 | 0.9 | 0.00 | 0.00 | 0.00 | 91 | 1054.5 |
| 20260905235803 | 76 | 220 | 0.0 | 0.0 | 0.00 | 0.00 | 0.00 | 91 | 1054.3 |
| 20260905235306 | 76 | 238 | 0.0 | 0.9 | 0.00 | 0.00 | 0.00 | 91 | 1054.6 |
| 20260905234757 | 76 | 188 | 0.0 | 1.7 | 0.00 | 0.00 | 0.00 | 91 | 1054.6 |
| 20260905234252 | 76 | 44 | 0.9 | 1.7 | 0.00 | 0.00 | 0.00 | 91 | 1054.4 |
| 20260905233748 | 76 | 222 | 0.0 | 0.0 | 0.00 | 0.00 | 0.00 | 91 | 1054.4 |
| 20260905233247 | 76 | 231 | 0.0 | 2.6 | 0.00 | 0.00 | 0.00 | 91 | 1054.3 |
| 20260905232742 | 76 | 200 | 0.9 | 1.7 | 0.00 | 0.00 | 0.00 | 91 | 1054.3 |
| 20260905232238 | 76 | 139 | 1.7 | 1.7 | 0.00 | 0.00 | 0.00 | 91 | 1054.3 |
| 20260905231734 | 77 | 237 | 0.9 | 0.9 | 0.00 | 0.00 | 0.00 | 90 | 1054.4 |
| 20260905231229 | 77 | 135 | 0.0 | 1.7 | 0.00 | 0.00 | 0.00 | 90 | 1054.3 |
| 20260905230725 | 77 | 330 | 0.0 | 0.9 | 0.00 | 0.00 | 0.00 | 90 | 1054.2 |
| 20260905230222 | 77 | 47 | 2.6 | 2.6 | 0.00 | 0.00 | 0.00 | 88 | 1054.5 |
| 20260905225722 | 77 | 58 | 0.9 | 1.7 | 0.00 | 0.00 | 0.00 | 88 | 1054.4 |
| 20260905225217 | 77 | 354 | 1.7 | 2.6 | 0.00 | 0.00 | 0.00 | 88 | 1054.4 |
| 20260905224716 | 77 | 327 | 1.7 | 2.6 | 0.00 | 0.00 | 0.00 | 89 | 1054.2 |
| 20260905224212 | 77 | 228 | 0.0 | 1.7 | 0.00 | 0.00 | 0.00 | 89 | 1054.2 |
| 20260905223708 | 76 | 12 | 1.7 | 1.7 | 0.00 | 0.00 | 0.00 | 90 | 1054.1 |
| 20260905223204 | 76 | 279 | 0.9 | 1.7 | 0.00 | 0.00 | 0.00 | 90 | 1054.2 |
| 20260905222700 | 76 | 16 | 0.9 | 3.5 | 0.00 | 0.00 | 0.00 | 90 | 1054.0 |
| 20260905222159 | 76 | 37 | 0.9 | 1.7 | 0.00 | 0.00 | 0.00 | 90 | 1054.1 |
| 20260905221655 | 76 | 77 | 1.7 | 2.6 | 0.00 | 0.00 | 0.00 | 90 | 1054.0 |
| 20260905221152 | 76 | 84 | 1.7 | 1.7 | 0.00 | 0.00 | 0.00 | 90 | 1053.9 |
| 20260905220647 | 76 | 71 | 2.6 | 3.5 | 0.00 | 0.00 | 0.00 | 89 | 1053.7 |
| 20260905220143 | 76 | 14 | 1.7 | 2.6 | 0.00 | 0.00 | 0.00 | 90 | 1053.8 |
| 20260905215642 | 76 | 51 | 3.5 | 3.5 | 0.00 | 0.00 | 0.00 | 89 | 1054.0 |
| 20260905215139 | 76 | 91 | 2.6 | 5.2 | 0.00 | 0.00 | 0.00 | 89 | 1054.0 |
| 20260905214635 | 76 | 343 | 1.7 | 2.6 | 0.00 | 0.00 | 0.00 | 89 | 1054.1 |
| 20260905214135 | 76 | 236 | 0.0 | 0.9 | 0.00 | 0.00 | 0.00 | 90 | 1054.0 |
| 20260905213630 | 76 | 63 | 1.7 | 2.6 | 0.00 | 0.00 | 0.00 | 89 | 1054.0 |
| 20260905213125 | 75 | 79 | 1.7 | 3.5 | 0.00 | 0.00 | 0.00 | 89 | 1054.1 |
| 20260905212620 | 76 | 41 | 3.5 | 5.2 | 0.00 | 0.00 | 0.00 | 89 | 1054.1 |
| 20260905212114 | 76 | 46 | 2.6 | 5.2 | 0.00 | 0.00 | 0.00 | 88 | 1054.2 |
| 20260905211609 | 76 | 254 | 1.7 | 2.6 | 0.00 | 0.00 | 0.00 | 88 | 1054.3 |
| 20260905211105 | 76 | 259 | 0.9 | 0.9 | 0.00 | 0.00 | 0.00 | 88 | 1054.2 |
| 20260905210602 | 76 | 47 | 1.7 | 5.2 | 0.00 | 0.00 | 0.00 | 88 | 1054.3 |
| 20260905210055 | 76 | 197 | 2.6 | 5.2 | 0.00 | 0.00 | 0.00 | 89 | 1054.4 |
| 20260905205554 | 76 | 66 | 1.7 | 6.1 | 0.00 | 0.00 | 0.00 | 88 | 1054.3 |
| 20260905205049 | 76 | 67 | 1.7 | 3.5 | 0.00 | 0.00 | 0.00 | 88 | 1054.3 |
| 20260905204549 | 76 | 245 | 0.0 | 2.6 | 0.00 | 0.00 | 0.00 | 88 | 1054.5 |
| 20260905204044 | 76 | 79 | 1.7 | 5.2 | 0.00 | 0.00 | 0.00 | 87 | 1054.4 |
| 20260905203543 | 76 | 213 | 0.9 | 7.0 | 0.00 | 0.00 | 0.00 | 87 | 1054.2 |
| 20260905203039 | 76 | 71 | 1.7 | 7.0 | 0.00 | 0.00 | 0.00 | 87 | 1054.1 |
| 20260905202534 | 77 | 66 | 3.5 | 7.8 | 0.00 | 0.00 | 0.00 | 87 | 1054.0 |
| 20260905202030 | 77 | 23 | 3.5 | 7.0 | 0.00 | 0.00 | 0.00 | 87 | 1053.8 |
| 20260905201525 | 77 | 41 | 2.6 | 7.8 | 0.00 | 0.00 | 0.00 | 87 | 1054.0 |
| 20260905201024 | 78 | 51 | 2.6 | 3.5 | 0.00 | 0.00 | 0.00 | 86 | 1054.3 |
| 20260905200520 | 79 | 78 | 1.7 | 5.2 | 0.00 | 0.00 | 0.00 | 86 | 1054.2 |
| 20260905200014 | 79 | 161 | 1.7 | 8.7 | 0.00 | 0.00 | 0.00 | 86 | 1054.1 |
| 20260905195509 | 79 | 74 | 1.7 | 5.2 | 0.00 | 0.00 | 0.00 | 86 | 1054.1 |
| 20260905195004 | 79 | 57 | 4.3 | 7.0 | 0.00 | 0.00 | 0.00 | 85 | 1054.3 |
| 20260905194504 | 79 | 100 | 5.2 | 7.8 | 0.00 | 0.00 | 0.00 | 85 | 1054.1 |
| 20260905194004 | 79 | 52 | 5.2 | 7.8 | 0.00 | 0.00 | 0.00 | 87 | 1053.7 |
| 20260905193504 | 79 | 23 | 7.8 | 11.3 | 0.00 | 0.00 | 0.00 | 87 | 1053.9 |
| 20260905192959 | 79 | 58 | 0.9 | 6.1 | 0.00 | 0.00 | 0.00 | 86 | 1053.9 |
| 20260905192454 | 79 | 48 | 2.6 | 8.7 | 0.00 | 0.00 | 0.00 | 87 | 1053.9 |
| 20260905191950 | 79 | 139 | 1.7 | 7.8 | 0.00 | 0.00 | 0.00 | 88 | 1053.8 |
| 20260905191449 | 79 | 341 | 3.5 | 7.8 | 0.00 | 0.00 | 0.00 | 87 | 1054.1 |
| 20260905190948 | 79 | 37 | 3.5 | 6.1 | 0.00 | 0.00 | 0.00 | 87 | 1054.6 |
| 20260905190447 | 79 | 92 | 2.6 | 3.5 | 0.00 | 0.00 | 0.00 | 87 | 1054.9 |
| 20260905185945 | 79 | 68 | 0.9 | 5.2 | 0.00 | 0.00 | 0.00 | 87 | 1054.9 |
| 20260905185441 | 79 | 89 | 1.7 | 3.5 | 0.00 | 0.00 | 0.00 | 87 | 1055.3 |
| 20260905184939 | 80 | 51 | 0.9 | 2.6 | 0.00 | 0.00 | 0.00 | 87 | 1055.4 |
| 20260905184434 | 79 | 139 | 0.0 | 1.7 | 0.00 | 0.00 | 0.00 | 88 | 1055.6 |
| 20260905183933 | 78 | 94 | 3.5 | 5.2 | 0.00 | 0.00 | 0.00 | 88 | 1055.7 |
| 20260905183422 | 78 | 72 | 1.7 | 5.2 | 0.00 | 0.00 | 0.00 | 89 | 1055.8 |
| 20260905182918 | 77 | 10 | 0.9 | 2.6 | 0.00 | 0.00 | 0.00 | 90 | 1055.9 |
| 20260905182416 | 78 | 94 | 0.0 | 2.6 | 0.00 | 0.00 | 0.00 | 90 | 1055.9 |
| 20260905181912 | 78 | 61 | 1.7 | 1.7 | 0.00 | 0.00 | 0.00 | 90 | 1056.1 |
| 20260905181406 | 78 | 66 | 3.5 | 5.2 | 0.00 | 0.00 | 0.00 | 90 | 1056.0 |
| 20260905180906 | 78 | 14 | 0.9 | 1.7 | 0.00 | 0.00 | 0.00 | 91 | 1056.0 |
| 20260905180401 | 78 | 276 | 0.9 | 1.7 | 0.00 | 0.00 | 0.00 | 91 | 1056.1 |
| 20260905175901 | 77 | 72 | 0.9 | 2.6 | 0.00 | 0.00 | 0.00 | 92 | 1056.2 |
| 20260905175400 | 77 | 236 | 0.0 | 2.6 | 0.00 | 0.00 | 0.00 | 93 | 1056.2 |
| 20260905174855 | 76 | 252 | 0.9 | 1.7 | 0.00 | 0.00 | 0.00 | 94 | 1056.4 |
| 20260905174351 | 76 | 68 | 1.7 | 2.6 | 0.00 | 0.00 | 0.00 | 94 | 1056.4 |
| 20260905173847 | 77 | 246 | 0.9 | 1.7 | 0.00 | 0.00 | 0.00 | 91 | 1056.7 |
| 20260905173343 | 77 | 255 | 0.9 | 1.7 | 0.00 | 0.00 | 0.00 | 91 | 1056.5 |
| 20260905172838 | 78 | 29 | 0.9 | 1.7 | 0.00 | 0.00 | 0.00 | 91 | 1056.3 |
| 20260905172335 | 77 | 249 | 0.0 | 1.7 | 0.00 | 0.00 | 0.00 | 92 | 1056.2 |
| 20260905171832 | 77 | 335 | 1.7 | 3.5 | 0.00 | 0.00 | 0.00 | 92 | 1056.2 |
| 20260905171329 | 76 | 193 | 1.7 | 3.5 | 0.00 | 0.00 | 0.00 | 94 | 1056.4 |
| 20260905170825 | 76 | 61 | 2.6 | 3.5 | 0.00 | 0.00 | 0.00 | 94 | 1056.3 |
| 20260905170320 | 75 | 247 | 0.0 | 0.9 | 0.00 | 0.00 | 0.00 | 95 | 1056.3 |
| 20260905165819 | 75 | 246 | 0.0 | 1.7 | 0.00 | 0.00 | 0.00 | 96 | 1056.5 |
| 20260905165310 | 75 | 39 | 1.7 | 2.6 | 0.00 | 0.00 | 0.00 | 96 | 1056.5 |
| 20260905164809 | 75 | 274 | 0.0 | 0.9 | 0.00 | 0.00 | 0.00 | 97 | 1056.9 |
| 20260905164304 | 75 | 178 | 0.9 | 0.9 | 0.00 | 0.00 | 0.00 | 96 | 1057.0 |
| 20260905163759 | 75 | 281 | 0.9 | 1.7 | 0.00 | 0.00 | 0.00 | 97 | 1056.7 |
| 20260905163255 | 75 | 225 | 0.0 | 0.9 | 0.00 | 0.00 | 0.00 | 97 | 1056.5 |
| 20260905162751 | 74 | 76 | 1.7 | 2.6 | 0.00 | 0.00 | 0.00 | 97 | 1056.6 |
| 20260905162251 | 74 | 50 | 1.7 | 1.7 | 0.00 | 0.00 | 0.00 | 98 | 1056.4 |
| 20260905161745 | 74 | 286 | 0.9 | 1.7 | 0.00 | 0.00 | 0.00 | 98 | 1056.3 |
| 20260905161244 | 74 | 63 | 2.6 | 5.2 | 0.00 | 0.00 | 0.00 | 99 | 1056.3 |
| 20260905160743 | 74 | 107 | 1.7 | 1.7 | 0.00 | 0.00 | 0.00 | 99 | 1056.2 |
| 20260905160243 | 74 | 233 | 0.9 | 0.9 | 0.00 | 0.00 | 0.00 | 99 | 1056.0 |
| 20260905155738 | 74 | 55 | 1.7 | 2.6 | 0.00 | 0.00 | 0.00 | 99 | 1056.1 |
| 20260905155237 | 74 | 14 | 0.9 | 1.7 | 0.00 | 0.00 | 0.00 | 99 | 1055.9 |
| 20260905154731 | 74 | 261 | 0.0 | 0.9 | 0.00 | 0.00 | 0.00 | 99 | 1056.2 |
| 20260905154228 | 74 | 167 | 0.0 | 0.9 | 0.00 | 0.00 | 0.00 | 99 | 1055.9 |
| 20260905153723 | 74 | 24 | 1.7 | 2.6 | 0.00 | 0.00 | 0.00 | 99 | 1056.0 |
| 20260905153219 | 73 | 265 | 0.0 | 2.6 | 0.00 | 0.00 | 0.00 | 99 | 1056.0 |
| 20260905152718 | 73 | 249 | 0.0 | 1.7 | 0.00 | 0.00 | 0.00 | 99 | 1056.0 |
| 20260905152213 | 73 | 328 | 0.9 | 2.6 | 0.00 | 0.00 | 0.00 | 99 | 1056.0 |
| 20260905151712 | 73 | 234 | 0.9 | 0.9 | 0.00 | 0.00 | 0.00 | 99 | 1055.8 |
| 20260905151209 | 73 | 214 | 0.0 | 1.7 | 0.00 | 0.00 | 0.00 | 99 | 1055.7 |
| 20260905150703 | 73 | 237 | 0.0 | 0.9 | 0.00 | 0.00 | 0.00 | 99 | 1055.8 |
| 20260905150202 | 73 | 344 | 1.7 | 1.7 | 0.00 | 0.00 | 0.00 | 99 | 1055.6 |